User: anonymous   Login
Location: Unspecified
(0.0000°N, 0.0000°E)
Time: 18:54:52
(UTC+00:00)
Language:

Nadezhda 5 - Orbit

View from above orbital plane
View from above orbital plane
View from above satellite
View from above satellite

Ground track
Ground track

The orbit data is extracted from the following two-line orbital elements,

1 25567U 98072A   17084.94734785 +.00000016 +00000-0 +40416-6 0  9996
2 25567 082.9479 049.6926 0027233 099.9229 322.3880 13.71821753915570
Epoch (UTC): 25 March 2017 22:44:10
Eccentricity: 0.0027233
inclination: 82.9479°
perigee height: 973 km
apogee height: 1013 km
right ascension of ascending node: 49.6926°
argument of perigee: 99.9229°
revolutions per day: 13.71821753
mean anomaly at epoch: 322.3880°
orbit number at epoch: 91557

The dashed part of the orbit path shows where the satellite is in the earth's shadow,  

DLR